Back to catalog

SL-8 DEB

AlivePO
NORAD 28706·DEBRIS·🇷🇺 Russia

Launched Feb 27, 1990 from Plesetsk Cosmodrome

Loading…

Next Passes (next 24 hours)

TLE

FreshSource: Space-Track

Epoch: Sep 14, 2026, 15:43 UTC

1 28706U 90017C   26257.65508138  .00000880  00000-0  70862-3 0  9990
2 28706  83.0875  37.6455 0080237 132.1467 228.6551 13.87897553 70439

Track SL-8 DEB in real time with AllMySat

Download on the App Store